Wetterdaten: Samstag, 20.04.2013
Datum Zeit Temp. Auen Feucht Auen Luftdruck Regen Richtung Richtung Windben
20.04.2013 00:00 6,8 C 94 % 1022,3 hPa 0,0 mm W 260 4,8 km/h (1 Bft)
20.04.2013 00:05 6,8 C 94 % 1022,3 hPa 0,0 mm W 267 6,4 km/h (2 Bft)
20.04.2013 00:10 6,8 C 94 % 1022,2 hPa 0,0 mm W-SW 258 6,4 km/h (2 Bft)
20.04.2013 00:15 6,8 C 94 % 1022,3 hPa 0,0 mm W 270 4,8 km/h (1 Bft)
20.04.2013 00:20 6,8 C 94 % 1022,4 hPa 0,0 mm W 270 4,8 km/h (1 Bft)
20.04.2013 00:25 6,8 C 94 % 1022,4 hPa 0,0 mm W 270 1,6 km/h (1 Bft)
20.04.2013 00:30 6,8 C 94 % 1022,3 hPa 0,4 mm W 270 1,6 km/h (1 Bft)
20.04.2013 00:35 6,8 C 94 % 1022,2 hPa 0,0 mm W 270 1,6 km/h (1 Bft)
20.04.2013 00:40 6,7 C 94 % 1022,2 hPa 0,2 mm W 270 0,0 km/h (0 Bft)
20.04.2013 00:45 6,7 C 94 % 1022,0 hPa 0,2 mm W 270 0,0 km/h (0 Bft)
20.04.2013 00:50 6,7 C 94 % 1022,0 hPa 0,0 mm W 270 0,0 km/h (0 Bft)
20.04.2013 00:55 6,7 C 94 % 1021,9 hPa 0,0 mm W 270 1,6 km/h (1 Bft)
20.04.2013 01:00 6,7 C 94 % 1021,9 hPa 0,0 mm W 270 1,6 km/h (1 Bft)
20.04.2013 01:05 6,7 C 94 % 1022,0 hPa 0,0 mm W 270 3,2 km/h (1 Bft)
20.04.2013 01:10 6,7 C 94 % 1021,9 hPa 0,2 mm W 269 4,8 km/h (1 Bft)
20.04.2013 01:15 6,8 C 94 % 1022,0 hPa 0,0 mm W 264 4,8 km/h (1 Bft)
20.04.2013 01:20 6,8 C 94 % 1022,0 hPa 0,0 mm W 267 3,2 km/h (1 Bft)
20.04.2013 01:25 6,8 C 95 % 1021,9 hPa 0,2 mm W 267 4,8 km/h (1 Bft)
20.04.2013 01:30 6,8 C 95 % 1021,8 hPa 0,0 mm W 266 4,8 km/h (1 Bft)
20.04.2013 01:35 6,8 C 95 % 1021,9 hPa 0,0 mm W 271 4,8 km/h (1 Bft)
20.04.2013 01:40 6,8 C 95 % 1021,8 hPa 0,0 mm W 259 6,4 km/h (2 Bft)
20.04.2013 01:45 6,7 C 94 % 1021,7 hPa 0,0 mm W-NW 283 6,4 km/h (2 Bft)
20.04.2013 01:50 6,7 C 94 % 1021,7 hPa 0,0 mm W 279 3,2 km/h (1 Bft)
20.04.2013 01:55 6,7 C 94 % 1021,7 hPa 0,2 mm W 269 6,4 km/h (2 Bft)
20.04.2013 02:00 6,6 C 94 % 1021,7 hPa 0,0 mm W 268 4,8 km/h (1 Bft)
20.04.2013 02:05 6,6 C 94 % 1021,7 hPa 0,0 mm W 268 3,2 km/h (1 Bft)
20.04.2013 02:10 6,6 C 94 % 1021,7 hPa 0,0 mm W 260 4,8 km/h (1 Bft)
20.04.2013 02:15 6,6 C 94 % 1021,7 hPa 0,2 mm W-NW 284 4,8 km/h (1 Bft)
20.04.2013 02:20 6,6 C 94 % 1021,8 hPa 0,0 mm W 267 4,8 km/h (1 Bft)
20.04.2013 02:25 6,6 C 94 % 1021,8 hPa 0,0 mm W-NW 286 3,2 km/h (1 Bft)
20.04.2013 02:30 6,6 C 94 % 1021,8 hPa 0,0 mm W 275 4,8 km/h (1 Bft)
20.04.2013 02:35 6,6 C 94 % 1021,9 hPa 0,2 mm W 279 6,4 km/h (2 Bft)
20.04.2013 02:40 6,5 C 94 % 1021,9 hPa 0,0 mm W-NW 292 6,4 km/h (2 Bft)
20.04.2013 02:45 6,5 C 94 % 1021,9 hPa 0,2 mm W 268 6,4 km/h (2 Bft)
20.04.2013 02:50 6,4 C 94 % 1021,8 hPa 0,0 mm W 268 8,0 km/h (2 Bft)
20.04.2013 02:55 6,4 C 94 % 1022,0 hPa 0,0 mm W 261 8,0 km/h (2 Bft)
20.04.2013 03:00 6,4 C 94 % 1021,9 hPa 0,2 mm W 271 11,3 km/h (2 Bft)
20.04.2013 03:05 6,3 C 94 % 1021,9 hPa 0,2 mm W 277 8,0 km/h (2 Bft)
20.04.2013 03:10 6,3 C 94 % 1021,9 hPa 0,2 mm W-NW 284 6,4 km/h (2 Bft)
20.04.2013 03:15 6,3 C 94 % 1021,8 hPa 0,2 mm W 261 4,8 km/h (1 Bft)
20.04.2013 03:20 6,3 C 94 % 1021,9 hPa 0,0 mm W 266 6,4 km/h (2 Bft)
20.04.2013 03:25 6,3 C 94 % 1021,8 hPa 0,4 mm W 266 1,6 km/h (1 Bft)
20.04.2013 03:30 6,3 C 94 % 1021,8 hPa 0,0 mm W-SW 257 4,8 km/h (1 Bft)
20.04.2013 03:35 6,3 C 94 % 1021,8 hPa 0,2 mm W 259 4,8 km/h (1 Bft)
20.04.2013 03:40 6,3 C 94 % 1021,8 hPa 0,2 mm W-SW 257 4,8 km/h (1 Bft)
20.04.2013 03:45 6,3 C 94 % 1021,8 hPa 0,0 mm W-SW 257 3,2 km/h (1 Bft)
20.04.2013 03:50 6,3 C 94 % 1021,7 hPa 0,2 mm W-SW 257 1,6 km/h (1 Bft)
20.04.2013 03:55 6,3 C 94 % 1021,7 hPa 0,0 mm W-SW 257 3,2 km/h (1 Bft)
20.04.2013 04:00 6,3 C 94 % 1021,6 hPa 0,2 mm W-SW 257 3,2 km/h (1 Bft)
20.04.2013 04:05 6,3 C 94 % 1021,6 hPa 0,0 mm W-SW 257 1,6 km/h (1 Bft)
20.04.2013 04:10 6,3 C 94 % 1021,5 hPa 0,0 mm W 273 4,8 km/h (1 Bft)
20.04.2013 04:15 6,3 C 95 % 1021,4 hPa 0,2 mm W 273 1,6 km/h (1 Bft)
20.04.2013 04:20 6,3 C 95 % 1021,4 hPa 0,0 mm W 273 0,0 km/h (0 Bft)
20.04.2013 04:25 6,2 C 95 % 1021,5 hPa 0,2 mm W 273 0,0 km/h (0 Bft)
20.04.2013 04:30 6,2 C 95 % 1021,5 hPa 0,0 mm W 273 3,2 km/h (1 Bft)
20.04.2013 04:35 6,3 C 95 % 1021,5 hPa 0,0 mm W 273 0,0 km/h (0 Bft)
20.04.2013 04:40 6,3 C 95 % 1021,4 hPa 0,0 mm W 261 4,8 km/h (1 Bft)
20.04.2013 04:45 6,3 C 95 % 1021,4 hPa 0,2 mm W 273 6,4 km/h (2 Bft)
20.04.2013 04:50 6,3 C 95 % 1021,5 hPa 0,0 mm W 273 0,0 km/h (0 Bft)
20.04.2013 04:55 6,3 C 95 % 1021,6 hPa 0,2 mm W 273 0,0 km/h (0 Bft)
20.04.2013 05:00 6,3 C 95 % 1021,5 hPa 0,0 mm W 273 4,8 km/h (1 Bft)
20.04.2013 05:05 6,3 C 95 % 1021,5 hPa 0,0 mm W 273 3,2 km/h (1 Bft)
20.04.2013 05:10 6,3 C 95 % 1021,4 hPa 0,0 mm W 265 4,8 km/h (1 Bft)
20.04.2013 05:15 6,3 C 95 % 1021,4 hPa 0,2 mm W 265 3,2 km/h (1 Bft)
20.04.2013 05:20 6,3 C 95 % 1021,4 hPa 0,0 mm W 265 3,2 km/h (1 Bft)
20.04.2013 05:25 6,3 C 95 % 1021,3 hPa 0,2 mm W 265 4,8 km/h (1 Bft)
20.04.2013 05:30 6,3 C 95 % 1021,4 hPa 0,0 mm W 265 0,0 km/h (0 Bft)
20.04.2013 05:35 6,3 C 95 % 1021,4 hPa 0,0 mm W 265 3,2 km/h (1 Bft)
20.04.2013 05:40 6,3 C 95 % 1021,4 hPa 0,0 mm W 264 4,8 km/h (1 Bft)
20.04.2013 05:45 6,3 C 95 % 1021,4 hPa 0,0 mm W 264 1,6 km/h (1 Bft)
20.04.2013 05:50 6,3 C 95 % 1021,2 hPa 0,0 mm W 269 3,2 km/h (1 Bft)
20.04.2013 05:55 6,3 C 95 % 1021,2 hPa 0,0 mm W-NW 300 3,2 km/h (1 Bft)
20.04.2013 06:00 6,3 C 95 % 1021,1 hPa 0,0 mm W 264 1,6 km/h (1 Bft)
20.04.2013 06:05 6,3 C 95 % 1021,2 hPa 0,2 mm W 265 3,2 km/h (1 Bft)
20.04.2013 06:10 6,3 C 95 % 1021,2 hPa 0,0 mm W 264 3,2 km/h (1 Bft)
20.04.2013 06:15 6,3 C 95 % 1021,1 hPa 0,0 mm W 264 1,6 km/h (1 Bft)
20.04.2013 06:20 6,4 C 95 % 1021,1 hPa 0,0 mm W-SW 255 4,8 km/h (1 Bft)
20.04.2013 06:25 6,4 C 95 % 1021,2 hPa 0,0 mm W 276 4,8 km/h (1 Bft)
20.04.2013 06:30 6,3 C 95 % 1021,2 hPa 0,2 mm W-NW 282 3,2 km/h (1 Bft)
20.04.2013 06:35 6,4 C 95 % 1021,3 hPa 0,0 mm W 271 3,2 km/h (1 Bft)
20.04.2013 06:40 6,4 C 95 % 1021,3 hPa 0,0 mm W 276 4,8 km/h (1 Bft)
20.04.2013 06:45 6,4 C 95 % 1021,3 hPa 0,0 mm W 271 4,8 km/h (1 Bft)
20.04.2013 06:50 6,4 C 95 % 1021,3 hPa 0,0 mm W 272 3,2 km/h (1 Bft)
20.04.2013 06:55 6,4 C 95 % 1021,3 hPa 0,0 mm W 272 1,6 km/h (1 Bft)
20.04.2013 07:00 6,4 C 95 % 1021,3 hPa 0,0 mm W 272 0,0 km/h (0 Bft)
20.04.2013 07:05 6,5 C 95 % 1021,4 hPa 0,0 mm W 272 0,0 km/h (0 Bft)
20.04.2013 07:10 6,5 C 95 % 1021,5 hPa 0,0 mm W 272 1,6 km/h (1 Bft)
20.04.2013 07:15 6,6 C 95 % 1021,4 hPa 0,0 mm W 272 0,0 km/h (0 Bft)
20.04.2013 07:20 6,6 C 95 % 1021,5 hPa 0,0 mm W 272 0,0 km/h (0 Bft)
20.04.2013 07:25 6,7 C 95 % 1021,5 hPa 0,0 mm W 272 0,0 km/h (0 Bft)
20.04.2013 07:30 6,7 C 95 % 1021,6 hPa 0,0 mm SW 224 0,0 km/h (0 Bft)
20.04.2013 07:35 6,8 C 95 % 1021,5 hPa 0,0 mm SW 224 0,0 km/h (0 Bft)
20.04.2013 07:40 6,8 C 95 % 1021,4 hPa 0,0 mm SW 224 0,0 km/h (0 Bft)
20.04.2013 07:45 6,8 C 95 % 1021,5 hPa 0,0 mm SW 224 0,0 km/h (0 Bft)
20.04.2013 07:50 6,8 C 95 % 1021,5 hPa 0,0 mm SW 224 0,0 km/h (0 Bft)
20.04.2013 07:55 6,8 C 95 % 1021,5 hPa 0,0 mm SW 224 0,0 km/h (0 Bft)
20.04.2013 08:00 6,8 C 94 % 1021,5 hPa 0,0 mm SW 224 0,0 km/h (0 Bft)
20.04.2013 08:05 6,8 C 94 % 1021,5 hPa 0,0 mm SW 224 0,0 km/h (0 Bft)
20.04.2013 08:10 6,9 C 95 % 1021,5 hPa 0,0 mm SW 224 0,0 km/h (0 Bft)
20.04.2013 08:15 6,9 C 95 % 1021,4 hPa 0,0 mm O 98 0,0 km/h (0 Bft)
20.04.2013 08:20 7,0 C 95 % 1021,4 hPa 0,0 mm NO 34 3,2 km/h (1 Bft)
20.04.2013 08:25 7,0 C 95 % 1021,4 hPa 0,0 mm O 96 4,8 km/h (1 Bft)
20.04.2013 08:30 7,1 C 95 % 1021,4 hPa 0,0 mm O-NO 63 4,8 km/h (1 Bft)
20.04.2013 08:35 7,1 C 95 % 1021,5 hPa 0,0 mm O 82 9,7 km/h (2 Bft)
20.04.2013 08:40 7,1 C 95 % 1021,3 hPa 0,0 mm O-NO 73 11,3 km/h (2 Bft)
20.04.2013 08:45 7,1 C 95 % 1021,3 hPa 0,0 mm O 88 9,7 km/h (2 Bft)
20.04.2013 08:50 7,2 C 95 % 1021,3 hPa 0,0 mm O 88 9,7 km/h (2 Bft)
20.04.2013 08:55 7,2 C 95 % 1021,3 hPa 0,2 mm O-NO 65 12,9 km/h (3 Bft)
20.04.2013 09:00 7,2 C 95 % 1021,2 hPa 0,0 mm O-SO 110 11,3 km/h (2 Bft)
20.04.2013 09:05 7,2 C 94 % 1021,2 hPa 0,0 mm O 92 11,3 km/h (2 Bft)
20.04.2013 09:10 7,2 C 95 % 1021,1 hPa 0,0 mm O 88 16,1 km/h (3 Bft)
20.04.2013 09:15 7,3 C 94 % 1021,1 hPa 0,0 mm O-SO 109 11,3 km/h (2 Bft)
20.04.2013 09:20 7,3 C 94 % 1021,2 hPa 0,0 mm SO 139 8,0 km/h (2 Bft)
20.04.2013 09:25 7,3 C 94 % 1021,2 hPa 0,0 mm O-SO 117 11,3 km/h (2 Bft)
20.04.2013 09:30 7,3 C 94 % 1021,2 hPa 0,0 mm O-SO 116 12,9 km/h (3 Bft)
20.04.2013 09:35 7,3 C 94 % 1021,1 hPa 0,0 mm O 99 11,3 km/h (2 Bft)
20.04.2013 09:40 7,3 C 94 % 1021,1 hPa 0,0 mm O 86 14,5 km/h (3 Bft)
20.04.2013 09:45 7,4 C 94 % 1021,1 hPa 0,0 mm O-SO 110 11,3 km/h (2 Bft)
20.04.2013 09:50 7,4 C 93 % 1021,1 hPa 0,0 mm O 87 25,7 km/h (4 Bft)
20.04.2013 09:55 7,4 C 93 % 1021,3 hPa 0,0 mm N-NO 12 14,5 km/h (3 Bft)
20.04.2013 10:00 7,4 C 93 % 1021,1 hPa 0,0 mm O-NO 73 16,1 km/h (3 Bft)
20.04.2013 10:05 7,5 C 92 % 1021,1 hPa 0,0 mm O 84 20,9 km/h (4 Bft)
20.04.2013 10:10 7,5 C 93 % 1021,2 hPa 0,0 mm O-SO 103 17,7 km/h (3 Bft)
20.04.2013 10:15 7,5 C 92 % 1021,2 hPa 0,0 mm NO 55 16,1 km/h (3 Bft)
20.04.2013 10:20 7,6 C 92 % 1021,2 hPa 0,0 mm O 90 22,5 km/h (4 Bft)
20.04.2013 10:25 7,6 C 92 % 1021,3 hPa 0,0 mm O 81 14,5 km/h (3 Bft)
20.04.2013 10:30 7,6 C 92 % 1021,3 hPa 0,0 mm O-NO 58 14,5 km/h (3 Bft)
20.04.2013 10:35 7,6 C 92 % 1021,3 hPa 0,0 mm O 89 19,3 km/h (3 Bft)
20.04.2013 10:40 7,7 C 92 % 1021,2 hPa 0,0 mm O-NO 68 16,1 km/h (3 Bft)
20.04.2013 10:45 7,7 C 92 % 1021,2 hPa 0,0 mm O 84 14,5 km/h (3 Bft)
20.04.2013 10:50 7,7 C 92 % 1021,3 hPa 0,0 mm O 94 11,3 km/h (2 Bft)
20.04.2013 10:55 7,7 C 92 % 1021,1 hPa 0,0 mm O-NO 67 14,5 km/h (3 Bft)
20.04.2013 11:00 7,7 C 92 % 1021,2 hPa 0,0 mm NO 34 14,5 km/h (3 Bft)
20.04.2013 11:05 7,8 C 92 % 1021,1 hPa 0,0 mm O 100 14,5 km/h (3 Bft)
20.04.2013 11:10 7,8 C 92 % 1021,1 hPa 0,0 mm O 98 14,5 km/h (3 Bft)
20.04.2013 11:15 7,8 C 92 % 1020,9 hPa 0,0 mm O 96 22,5 km/h (4 Bft)
20.04.2013 11:20 7,8 C 92 % 1021,1 hPa 0,0 mm O-NO 69 16,1 km/h (3 Bft)
20.04.2013 11:25 7,8 C 92 % 1021,1 hPa 0,0 mm O-NO 74 17,7 km/h (3 Bft)
20.04.2013 11:30 7,8 C 92 % 1021,2 hPa 0,0 mm O 80 14,5 km/h (3 Bft)
20.04.2013 11:35 7,8 C 92 % 1021,2 hPa 0,0 mm O-SO 119 14,5 km/h (3 Bft)
20.04.2013 11:40 7,8 C 92 % 1021,1 hPa 0,0 mm O 96 16,1 km/h (3 Bft)
20.04.2013 11:45 7,9 C 92 % 1021,0 hPa 0,0 mm O-SO 121 14,5 km/h (3 Bft)
20.04.2013 11:50 7,9 C 92 % 1021,1 hPa 0,0 mm O-SO 103 20,9 km/h (4 Bft)
20.04.2013 11:55 7,9 C 92 % 1020,9 hPa 0,0 mm O 88 22,5 km/h (4 Bft)
20.04.2013 12:00 8,0 C 92 % 1020,7 hPa 0,0 mm O 81 16,1 km/h (3 Bft)
20.04.2013 12:05 8,0 C 92 % 1020,9 hPa 0,0 mm O 90 16,1 km/h (3 Bft)
20.04.2013 12:10 8,1 C 92 % 1020,8 hPa 0,0 mm O-SO 104 16,1 km/h (3 Bft)
20.04.2013 12:15 8,1 C 92 % 1020,8 hPa 0,0 mm O 90 16,1 km/h (3 Bft)
20.04.2013 12:20 8,1 C 92 % 1020,7 hPa 0,0 mm O-SO 106 16,1 km/h (3 Bft)
20.04.2013 12:25 8,1 C 92 % 1020,8 hPa 0,0 mm O-NO 74 14,5 km/h (3 Bft)
20.04.2013 12:30 8,1 C 91 % 1020,6 hPa 0,0 mm O 89 19,3 km/h (3 Bft)
20.04.2013 12:35 8,2 C 91 % 1020,7 hPa 0,0 mm O 101 14,5 km/h (3 Bft)
20.04.2013 12:40 8,2 C 91 % 1020,5 hPa 0,0 mm O 98 14,5 km/h (3 Bft)
20.04.2013 12:45 8,2 C 92 % 1020,5 hPa 0,0 mm O-NO 72 12,9 km/h (3 Bft)
20.04.2013 12:50 8,3 C 92 % 1020,5 hPa 0,0 mm O 100 14,5 km/h (3 Bft)
20.04.2013 12:55 8,3 C 92 % 1020,5 hPa 0,0 mm O 86 16,1 km/h (3 Bft)
20.04.2013 13:00 8,3 C 91 % 1020,5 hPa 0,0 mm O 97 17,7 km/h (3 Bft)
20.04.2013 13:05 8,3 C 92 % 1020,4 hPa 0,0 mm O 92 12,9 km/h (3 Bft)
20.04.2013 13:10 8,4 C 91 % 1020,5 hPa 0,0 mm O 84 12,9 km/h (3 Bft)
20.04.2013 13:15 8,4 C 91 % 1020,5 hPa 0,0 mm O-SO 105 16,1 km/h (3 Bft)
20.04.2013 13:20 8,4 C 91 % 1020,5 hPa 0,0 mm O-NO 72 11,3 km/h (2 Bft)
20.04.2013 13:25 8,4 C 91 % 1020,5 hPa 0,0 mm O-NO 60 14,5 km/h (3 Bft)
20.04.2013 13:30 8,3 C 91 % 1020,6 hPa 0,0 mm O-NO 76 14,5 km/h (3 Bft)
20.04.2013 13:35 8,3 C 91 % 1020,7 hPa 0,0 mm O-NO 71 17,7 km/h (3 Bft)
20.04.2013 13:40 8,3 C 91 % 1020,7 hPa 0,0 mm O 92 14,5 km/h (3 Bft)
20.04.2013 13:45 8,3 C 91 % 1020,7 hPa 0,0 mm O-NO 74 14,5 km/h (3 Bft)
20.04.2013 13:50 8,4 C 92 % 1020,6 hPa 0,0 mm O 98 14,5 km/h (3 Bft)
20.04.2013 13:55 8,4 C 92 % 1020,6 hPa 0,0 mm O-SO 102 12,9 km/h (3 Bft)
20.04.2013 14:00 8,4 C 91 % 1020,4 hPa 0,0 mm O-SO 112 16,1 km/h (3 Bft)
20.04.2013 14:05 8,5 C 91 % 1020,5 hPa 0,0 mm O 87 17,7 km/h (3 Bft)
20.04.2013 14:10 8,6 C 91 % 1020,4 hPa 0,0 mm O 86 14,5 km/h (3 Bft)
20.04.2013 14:15 8,6 C 91 % 1020,5 hPa 0,0 mm NO 38 14,5 km/h (3 Bft)
20.04.2013 14:20 8,7 C 91 % 1020,5 hPa 0,0 mm O-NO 77 17,7 km/h (3 Bft)
20.04.2013 14:25 8,7 C 91 % 1020,5 hPa 0,0 mm O-SO 117 17,7 km/h (3 Bft)
20.04.2013 14:30 8,8 C 91 % 1020,5 hPa 0,0 mm O-SO 115 16,1 km/h (3 Bft)
20.04.2013 14:35 8,8 C 91 % 1020,4 hPa 0,0 mm O 86 16,1 km/h (3 Bft)
20.04.2013 14:40 8,8 C 91 % 1020,3 hPa 0,0 mm SO 126 17,7 km/h (3 Bft)
20.04.2013 14:45 8,9 C 91 % 1020,3 hPa 0,0 mm O-SO 115 12,9 km/h (3 Bft)
20.04.2013 14:50 8,9 C 91 % 1020,4 hPa 0,0 mm O 93 16,1 km/h (3 Bft)
20.04.2013 14:55 9,1 C 91 % 1020,2 hPa 0,0 mm O-NO 73 16,1 km/h (3 Bft)
20.04.2013 15:00 9,1 C 91 % 1020,2 hPa 0,0 mm O-SO 106 16,1 km/h (3 Bft)
20.04.2013 15:05 9,1 C 91 % 1020,2 hPa 0,0 mm O 94 17,7 km/h (3 Bft)
20.04.2013 15:10 9,1 C 90 % 1020,2 hPa 0,0 mm O-SO 112 14,5 km/h (3 Bft)
20.04.2013 15:15 9,1 C 91 % 1020,2 hPa 0,0 mm O 97 12,9 km/h (3 Bft)
20.04.2013 15:20 9,1 C 91 % 1020,2 hPa 0,0 mm SO 136 16,1 km/h (3 Bft)
20.04.2013 15:25 9,1 C 91 % 1020,1 hPa 0,0 mm SO 126 16,1 km/h (3 Bft)
20.04.2013 15:30 9,1 C 91 % 1020,1 hPa 0,0 mm O-SO 117 16,1 km/h (3 Bft)
20.04.2013 15:35 9,2 C 91 % 1020,1 hPa 0,0 mm SO 125 16,1 km/h (3 Bft)
20.04.2013 15:40 9,2 C 91 % 1020,1 hPa 0,0 mm O-SO 109 14,5 km/h (3 Bft)
20.04.2013 15:45 9,2 C 90 % 1020,0 hPa 0,0 mm O-NO 64 16,1 km/h (3 Bft)
20.04.2013 15:50 9,2 C 91 % 1019,9 hPa 0,0 mm SO 129 17,7 km/h (3 Bft)
20.04.2013 15:55 9,3 C 90 % 1019,9 hPa 0,0 mm O-SO 118 16,1 km/h (3 Bft)
20.04.2013 16:00 9,3 C 91 % 1019,8 hPa 0,0 mm O-SO 105 14,5 km/h (3 Bft)
20.04.2013 16:05 9,4 C 90 % 1019,8 hPa 0,0 mm O-SO 112 14,5 km/h (3 Bft)
20.04.2013 16:10 9,4 C 91 % 1019,8 hPa 0,0 mm O 82 14,5 km/h (3 Bft)
20.04.2013 16:15 9,5 C 90 % 1019,7 hPa 0,0 mm O-NO 67 14,5 km/h (3 Bft)
20.04.2013 16:20 9,5 C 91 % 1019,6 hPa 0,0 mm SO 133 14,5 km/h (3 Bft)
20.04.2013 16:25 9,5 C 91 % 1019,7 hPa 0,0 mm O-SO 107 14,5 km/h (3 Bft)
20.04.2013 16:30 9,5 C 91 % 1019,5 hPa 0,0 mm O 97 16,1 km/h (3 Bft)
20.04.2013 16:35 9,6 C 91 % 1019,6 hPa 0,0 mm O 99 12,9 km/h (3 Bft)
20.04.2013 16:40 9,6 C 90 % 1019,6 hPa 0,0 mm O-SO 121 16,1 km/h (3 Bft)
20.04.2013 16:45 9,5 C 90 % 1019,6 hPa 0,0 mm O-SO 116 14,5 km/h (3 Bft)
20.04.2013 16:50 9,4 C 90 % 1019,6 hPa 0,0 mm SO 125 14,5 km/h (3 Bft)
20.04.2013 16:55 9,4 C 91 % 1019,6 hPa 0,0 mm O 93 12,9 km/h (3 Bft)
20.04.2013 17:00 9,4 C 91 % 1019,5 hPa 0,0 mm SO 124 12,9 km/h (3 Bft)
20.04.2013 17:05 9,5 C 91 % 1019,6 hPa 0,0 mm O 90 12,9 km/h (3 Bft)
20.04.2013 17:10 9,6 C 91 % 1019,6 hPa 0,0 mm O-SO 117 12,9 km/h (3 Bft)
20.04.2013 17:15 9,6 C 91 % 1019,6 hPa 0,0 mm O-SO 121 11,3 km/h (2 Bft)
20.04.2013 17:20 9,6 C 91 % 1019,6 hPa 0,0 mm SO 128 14,5 km/h (3 Bft)
20.04.2013 17:25 9,6 C 91 % 1019,7 hPa 0,0 mm O-SO 105 12,9 km/h (3 Bft)
20.04.2013 17:30 9,5 C 90 % 1019,6 hPa 0,0 mm SO 144 14,5 km/h (3 Bft)
20.04.2013 17:35 9,6 C 91 % 1019,6 hPa 0,0 mm O 88 14,5 km/h (3 Bft)
20.04.2013 17:40 9,6 C 91 % 1019,7 hPa 0,0 mm O 81 12,9 km/h (3 Bft)
20.04.2013 17:45 9,6 C 91 % 1019,6 hPa 0,0 mm O-SO 113 11,3 km/h (2 Bft)
20.04.2013 17:50 9,6 C 91 % 1019,7 hPa 0,0 mm O-SO 117 16,1 km/h (3 Bft)
20.04.2013 17:55 9,6 C 91 % 1019,6 hPa 0,0 mm O-SO 111 14,5 km/h (3 Bft)
20.04.2013 18:00 9,5 C 91 % 1019,6 hPa 0,0 mm O 92 12,9 km/h (3 Bft)
20.04.2013 18:05 9,5 C 91 % 1019,6 hPa 0,0 mm O-NO 65 11,3 km/h (2 Bft)
20.04.2013 18:10 9,5 C 91 % 1019,5 hPa 0,0 mm SO 135 11,3 km/h (2 Bft)
20.04.2013 18:15 9,5 C 91 % 1019,4 hPa 0,0 mm O-SO 106 14,5 km/h (3 Bft)
20.04.2013 18:20 9,5 C 91 % 1019,4 hPa 0,0 mm O-SO 109 14,5 km/h (3 Bft)
20.04.2013 18:25 9,5 C 91 % 1019,4 hPa 0,0 mm O-SO 107 12,9 km/h (3 Bft)
20.04.2013 18:30 9,5 C 91 % 1019,5 hPa 0,0 mm SO 133 12,9 km/h (3 Bft)
20.04.2013 18:35 9,4 C 91 % 1019,5 hPa 0,0 mm O-SO 113 11,3 km/h (2 Bft)
20.04.2013 18:40 9,4 C 92 % 1019,4 hPa 0,0 mm SO 124 9,7 km/h (2 Bft)
20.04.2013 18:45 9,4 C 92 % 1019,4 hPa 0,0 mm SO 136 9,7 km/h (2 Bft)
20.04.2013 18:50 9,4 C 92 % 1019,4 hPa 0,0 mm SO 143 11,3 km/h (2 Bft)
20.04.2013 18:55 9,4 C 92 % 1019,3 hPa 0,0 mm O-SO 112 9,7 km/h (2 Bft)
20.04.2013 19:00 9,4 C 92 % 1019,3 hPa 0,0 mm O 101 9,7 km/h (2 Bft)
20.04.2013 19:05 9,4 C 92 % 1019,3 hPa 0,0 mm SO 135 11,3 km/h (2 Bft)
20.04.2013 19:10 9,4 C 92 % 1019,3 hPa 0,0 mm SO 130 11,3 km/h (2 Bft)
20.04.2013 19:15 9,4 C 92 % 1019,3 hPa 0,0 mm O 94 12,9 km/h (3 Bft)
20.04.2013 19:20 9,4 C 92 % 1019,3 hPa 0,0 mm O 91 11,3 km/h (2 Bft)
20.04.2013 19:25 9,4 C 92 % 1019,3 hPa 0,0 mm O-SO 123 12,9 km/h (3 Bft)
20.04.2013 19:30 9,4 C 92 % 1019,3 hPa 0,0 mm O-SO 108 9,7 km/h (2 Bft)
20.04.2013 19:35 9,4 C 92 % 1019,4 hPa 0,0 mm O 101 12,9 km/h (3 Bft)
20.04.2013 19:40 9,4 C 92 % 1019,4 hPa 0,0 mm SO 129 11,3 km/h (2 Bft)
20.04.2013 19:45 9,4 C 92 % 1019,4 hPa 0,0 mm O 98 11,3 km/h (2 Bft)
20.04.2013 19:50 9,3 C 92 % 1019,4 hPa 0,0 mm SO 130 8,0 km/h (2 Bft)
20.04.2013 19:55 9,3 C 92 % 1019,5 hPa 0,0 mm O-SO 105 11,3 km/h (2 Bft)
20.04.2013 20:00 9,4 C 92 % 1019,5 hPa 0,0 mm O-SO 108 12,9 km/h (3 Bft)
20.04.2013 20:05 9,4 C 92 % 1019,5 hPa 0,0 mm O 100 11,3 km/h (2 Bft)
20.04.2013 20:10 9,4 C 92 % 1019,5 hPa 0,0 mm O 85 11,3 km/h (2 Bft)
20.04.2013 20:15 9,4 C 92 % 1019,5 hPa 0,0 mm O-NO 78 12,9 km/h (3 Bft)
20.04.2013 20:20 9,4 C 92 % 1019,4 hPa 0,0 mm O 80 14,5 km/h (3 Bft)
20.04.2013 20:25 9,4 C 92 % 1019,4 hPa 0,0 mm O-SO 120 12,9 km/h (3 Bft)
20.04.2013 20:30 9,4 C 92 % 1019,5 hPa 0,0 mm O 84 9,7 km/h (2 Bft)
20.04.2013 20:35 9,4 C 92 % 1019,6 hPa 0,0 mm O-SO 106 11,3 km/h (2 Bft)
20.04.2013 20:40 9,3 C 92 % 1019,5 hPa 0,0 mm O 97 12,9 km/h (3 Bft)
20.04.2013 20:45 9,4 C 92 % 1019,6 hPa 0,0 mm O 81 11,3 km/h (2 Bft)
20.04.2013 20:50 9,4 C 92 % 1019,6 hPa 0,0 mm O-SO 105 12,9 km/h (3 Bft)
20.04.2013 20:55 9,4 C 92 % 1019,6 hPa 0,0 mm O 90 12,9 km/h (3 Bft)
20.04.2013 21:00 9,4 C 92 % 1019,6 hPa 0,0 mm O 92 12,9 km/h (3 Bft)
20.04.2013 21:05 9,4 C 92 % 1019,6 hPa 0,0 mm O 82 12,9 km/h (3 Bft)
20.04.2013 21:10 9,4 C 92 % 1019,8 hPa 0,0 mm O 90 9,7 km/h (2 Bft)
20.04.2013 21:15 9,4 C 92 % 1019,9 hPa 0,0 mm N-NO 28 11,3 km/h (2 Bft)
20.04.2013 21:20 9,4 C 92 % 1019,8 hPa 0,0 mm O-NO 71 12,9 km/h (3 Bft)
20.04.2013 21:25 9,4 C 92 % 1019,9 hPa 0,0 mm O 98 14,5 km/h (3 Bft)
20.04.2013 21:30 9,4 C 92 % 1020,0 hPa 0,0 mm O-NO 78 16,1 km/h (3 Bft)
20.04.2013 21:35 9,4 C 92 % 1019,9 hPa 0,0 mm O-NO 77 12,9 km/h (3 Bft)
20.04.2013 21:40 9,4 C 92 % 1019,9 hPa 0,0 mm O-SO 109 12,9 km/h (3 Bft)
20.04.2013 21:45 9,4 C 92 % 1019,8 hPa 0,0 mm O 90 16,1 km/h (3 Bft)
20.04.2013 21:50 9,4 C 92 % 1019,8 hPa 0,0 mm O 90 14,5 km/h (3 Bft)
20.04.2013 21:55 9,4 C 92 % 1019,7 hPa 0,0 mm O 90 16,1 km/h (3 Bft)
20.04.2013 22:00 9,4 C 92 % 1019,6 hPa 0,0 mm O 90 16,1 km/h (3 Bft)
20.04.2013 22:05 9,4 C 92 % 1019,7 hPa 0,0 mm O 90 16,1 km/h (3 Bft)
20.04.2013 22:10 9,4 C 92 % 1019,7 hPa 0,0 mm O 90 14,5 km/h (3 Bft)
20.04.2013 22:15 9,3 C 91 % 1019,6 hPa 0,0 mm O 90 17,7 km/h (3 Bft)
20.04.2013 22:20 9,4 C 92 % 1019,8 hPa 0,0 mm O 90 20,9 km/h (4 Bft)
20.04.2013 22:25 9,3 C 91 % 1019,7 hPa 0,0 mm O 92 17,7 km/h (3 Bft)
20.04.2013 22:30 9,3 C 92 % 1019,6 hPa 0,0 mm O 97 17,7 km/h (3 Bft)
20.04.2013 22:35 9,3 C 91 % 1019,6 hPa 0,0 mm O 80 19,3 km/h (3 Bft)
20.04.2013 22:40 9,3 C 91 % 1019,6 hPa 0,0 mm O 92 16,1 km/h (3 Bft)
20.04.2013 22:45 9,3 C 92 % 1019,6 hPa 0,0 mm O-NO 76 16,1 km/h (3 Bft)
20.04.2013 22:50 9,3 C 92 % 1019,5 hPa 0,0 mm O 79 16,1 km/h (3 Bft)
20.04.2013 22:55 9,3 C 92 % 1019,5 hPa 0,0 mm O 88 12,9 km/h (3 Bft)
20.04.2013 23:00 9,3 C 92 % 1019,5 hPa 0,0 mm O 87 16,1 km/h (3 Bft)
20.04.2013 23:05 9,2 C 92 % 1019,5 hPa 0,0 mm O-NO 74 12,9 km/h (3 Bft)
20.04.2013 23:10 9,2 C 92 % 1019,5 hPa 0,0 mm O-NO 72 14,5 km/h (3 Bft)
20.04.2013 23:15 9,2 C 92 % 1019,4 hPa 0,0 mm O 82 12,9 km/h (3 Bft)
20.04.2013 23:20 9,2 C 92 % 1019,4 hPa 0,0 mm O 82 14,5 km/h (3 Bft)
20.04.2013 23:25 9,2 C 92 % 1019,4 hPa 0,0 mm O 86 17,7 km/h (3 Bft)
20.04.2013 23:30 9,3 C 92 % 1019,4 hPa 0,0 mm O 80 16,1 km/h (3 Bft)
20.04.2013 23:35 9,3 C 92 % 1019,4 hPa 0,0 mm O 96 16,1 km/h (3 Bft)
20.04.2013 23:40 9,3 C 92 % 1019,3 hPa 0,0 mm O 99 16,1 km/h (3 Bft)
20.04.2013 23:45 9,3 C 92 % 1019,3 hPa 0,0 mm O-SO 123 16,1 km/h (3 Bft)
20.04.2013 23:50 9,2 C 92 % 1019,3 hPa 0,0 mm O 91 14,5 km/h (3 Bft)
20.04.2013 23:55 9,2 C 92 % 1019,2 hPa 0,0 mm O 82 20,9 km/h (4 Bft)
_ Min-Zeit 04:25 15:10 23:55 - - - 00:40
Minimum _ 6,2 C 90 % 1019,2 hPa - - - 0,0 km/h (0 Bft)
_ Max-Zeit 16:35 01:25 00:20 00:30 - - 09:50
Maximum _ 9,6 C 95 % 1022,4 hPa 0,4 mm - - 25,7 km/h
O (4 Bft)
Durchschnitt _ 8,0 C 93 % 1020,7 hPa #5,8 mm O - 10,4 km/h (2 Bft)